Pagina principale
METAR-TAF:

METAR-TAF

Aeroporti :

Kahmishli, Siria

latitudine: 37-03N, longitudine: 041-13E, altezza: 455 m

Osservazione

Il bollettino è stato emesso 5 ore e 39 minuti fa, alle 21:00 UTC
Vento 8 kt da nord
Temperature 17°C
Umidità 19%
Pressione 1015 hPa
Visibilità 10 km o più
nessuna nube inferiore a 1500 m e nessun cumulonembo

METAR: OSKL 242100Z 35008KT CAVOK 17/M07 Q1015

Ora: 05:39 (02:39 UTC)


TAF: mancante

Osservazioni e previsioni meteorologiche di più di 4000 aeroporti (messaggi METAR e TAF).

Le stazioni disponibili sono rappresentate dai dischi gialli e rossi sulla carta.

Puntare il mouse per vedere il nome della stazione.

Clicca sopra per visualizzare le osservazioni e previsioni meteorologiche.

Per cambiare la mappa : fare clic sui pulsanti verdi con una croce nera per ingrandire, il pulsante verde con un trattino per diminuire, o sulla freccia verde per le mappe adiacenti.


METAR-TAF: